Weather History for Port Angeles, WA

Change the Weather History Date:

Tuesday, March 6, 2012

  Actual Average Record
Temperature  
Mean Temperature 38 °F -  
Max Temperature 43 °F 50 °F 59 °F (1965)
Min Temperature 33 °F 35 °F 22 °F (1951)
Degree Days  
Heating Degree Days 27    
Moisture  
Dew Point 23 °F    
Average Humidity 56    
Maximum Humidity 70    
Minimum Humidity 39    
Precipitation  
Precipitation 0.00 in - - ()
Sea Level Pressure  
Sea Level Pressure 30.19 in    
Wind  
Wind Speed 6 mph (West)    
Max Wind Speed 12 mph    
Max Gust Speed 25 mph    
Visibility 10 miles    
Events      
Averages and records for this station are not official NWS values.
T = Trace of Precipitation, MM = Missing Value Source: NWS Daily Summary

Daily Weather History Graph

Daily Weather History Graph

Search for Another Location

Airport:

Trip Planner

Search our weather history database for the weather conditions in past years. The results will help you decide how hot, cold, wet, or windy it might be!

Date:

Astronomy

Mar. 06, 2012 Rise Set
Actual Time 6:44 AM PST 6:06 PM PST
Civil Twilight 6:13 AM PST 6:37 PM PST
Nautical Twilight 5:37 AM PST 7:13 PM PST
Astronomical Twilight 5:00 AM PST 7:50 PM PST
Moon 4:36 PM PST (3/6) 5:28 AM PST (3/6)
Length of Visible Light 12h 24m
Length of Day
11h 22m
Waxing Gibbous, 97% of the Moon is Illuminated
Mar 6
Waxing Gibbous
Mar 8
Full
Mar 14
Last Quarter
Mar 22
New
Mar 30
First Quarter

Hourly Weather History & Observations

Time (PST) Temp. Windchill Dew Point Humidity Pressure Visibility Wind Dir Wind Speed Gust Speed Precip Events Conditions
12:53 AM 37.0 °F 29.3 °F 23.0 °F 57% 29.94 in 8.0 mi WNW 11.5 mph 25.3 mph N/A   Overcast
1:53 AM 36.0 °F 31.1 °F 26.1 °F 67% 29.96 in 10.0 mi West 5.8 mph - 0.00 in   Overcast
2:53 AM 37.0 °F 31.0 °F 24.1 °F 59% 29.97 in 10.0 mi WSW 8.1 mph - N/A   Overcast
3:53 AM 37.0 °F 31.0 °F 24.1 °F 59% 29.99 in 10.0 mi West 8.1 mph - N/A   Overcast
4:53 AM 37.0 °F 33.3 °F 23.0 °F 57% 30.02 in 10.0 mi WSW 4.6 mph - N/A   Overcast
5:53 AM 35.1 °F - 25.0 °F 67% 30.06 in 10.0 mi Calm Calm - N/A   Overcast
6:53 AM 35.1 °F 30.1 °F 26.1 °F 70% 30.09 in 10.0 mi SW 5.8 mph - N/A   Overcast
7:53 AM 36.0 °F - 26.1 °F 67% 30.12 in 10.0 mi Calm Calm - N/A   Overcast
8:53 AM 39.0 °F - 19.9 °F 46% 30.15 in 10.0 mi Calm Calm - N/A   Overcast
9:53 AM 39.0 °F 36.8 °F 19.0 °F 45% 30.16 in 10.0 mi NE 3.5 mph - N/A   Overcast
10:53 AM 39.0 °F 34.0 °F 19.0 °F 45% 30.19 in 10.0 mi NE 6.9 mph - N/A   Partly Cloudy
11:53 AM 42.1 °F 40.2 °F 21.9 °F 45% 30.22 in 10.0 mi North 3.5 mph - N/A   Clear
12:53 PM 41.0 °F - 19.9 °F 43% 30.22 in 10.0 mi Calm Calm - N/A   Clear
1:53 PM 43.0 °F 41.3 °F 21.0 °F 42% 30.23 in 10.0 mi Variable 3.5 mph - N/A   Clear
2:53 PM 42.8 °F 40.1 °F 19.4 °F 39% 30.24 in 10.0 mi Variable 4.6 mph - N/A   Partly Cloudy
3:53 PM 43.0 °F 40.3 °F 21.9 °F 43% 30.26 in 10.0 mi Variable 4.6 mph - N/A   Clear
4:53 PM 43.0 °F 41.3 °F 21.9 °F 43% 30.29 in 10.0 mi NE 3.5 mph - N/A   Clear
5:53 PM 37.4 °F - 21.2 °F 52% 30.29 in 10.0 mi Calm Calm - N/A   Clear
6:53 PM 33.1 °F - 24.1 °F 70% 30.31 in 10.0 mi Calm Calm - N/A   Clear
7:53 PM 34.0 °F 28.0 °F 25.0 °F 70% 30.32 in 10.0 mi WSW 6.9 mph - N/A   Clear
8:53 PM 36.0 °F 30.3 °F 26.1 °F 67% 30.35 in 10.0 mi WSW 6.9 mph - N/A   Clear
9:53 PM 36.0 °F 28.0 °F 26.1 °F 67% 30.35 in 10.0 mi WSW 11.5 mph - N/A   Clear
10:53 PM 37.0 °F 29.8 °F 25.0 °F 62% 30.36 in 10.0 mi WSW 10.4 mph - N/A   Partly Cloudy
11:53 PM 36.0 °F 28.0 °F 25.0 °F 64% 30.36 in 10.0 mi WSW 11.5 mph - N/A   Clear